User: anonymous   Login
Location: Ehrke Reservoir
(40.0279°N, 99.6641°W)
Time: 21:30:27
(UTC+00:00)
Language:

Cosmos 494 Rocket - Orbit

View from above orbital plane
View from above orbital plane
View from above satellite
View from above satellite

Ground track
Ground track

The orbit data is extracted from the following two-line orbital elements,

1  6061U 72043B   20088.22795967 -.00000054 +00000-0 -85557-5 0  9990
2  6061 074.0536 105.3234 0020412 337.3627 022.6626 14.40578501504220
Epoch (UTC): 28 March 2020 05:28:15
Eccentricity: 0.0020412
inclination: 74.0536°
perigee height: 742 km
apogee height: 771 km
right ascension of ascending node: 105.3234°
argument of perigee: 337.3627°
revolutions per day: 14.40578501
mean anomaly at epoch: 22.6626°
orbit number at epoch: 50422

The dashed part of the orbit path shows where the satellite is in the earth's shadow,  

DLR